Lid_Strength_Index
8 9 11 9 8 10 11 11 11 10 10 10 10 10 8 7 7 8 7 6 6 6 5 5 5 6 6 5 4 4 4 3 2 2 3 3 3 3 3 5 4 4 1 1
9 11 8 9 9 10 11 11 11 10 10 11 10 10 9 8 8 7 7 6 6 6 5 6 6 6 6 6 5 5 5 4 3 3 3 3 3 4 4 6 6 6 5 3
10 10 9 10 11 11 11 11 11 11 10 10 11 11 10 8 8 8 7 6 6 6 6 6 7 7 6 6 6 6 5 4 3 3 3 5 5 6 7 8 7 8 7 6
10 9 10 11 11 10 12 10 10 11 12 14 11 15 11 9 9 8 7 6 6 6 6 7 7 7 7 7 6 6 5 5 4 4 5 5 5 5 5 6 7 9 9 9
11 11 11 11 10 10 11 10 11 11 12 13 12 14 12 11 10 9 7 6 7 6 7 7 8 7 7 7 7 6 6 5 4 4 5 5 5 4 4 6 9 9 11 10
10 9 9 9 10 9 10 10 11 11 12 15 12 13 13 11 10 9 7 8 8 8 8 8 9 9 9 8 7 7 6 6 5 5 5 5 5 4 6 7 9 11 12 12
11 11 10 9 10 10 10 11 14 15 16 16 13 14 12 10 9 8 7 7 8 8 7 8 9 9 10 9 8 7 7 6 6 6 6 6 5 5 6 6 7 10 13 14
13 14 11 9 9 10 11 11 13 20 16 14 14 15 11 9 8 7 7 8 9 8 8 9 9 9 9 9 8 7 7 7 6 6 6 6 5 6 5 6 7 9 11 12
12 13 11 10 9 9 12 13 10 13 17 15 13 11 9 9 9 9 8 9 8 7 8 9 9 9 9 9 8 8 8 7 7 7 6 6 6 6 7 8 9 10 11 13
11 13 12 11 10 10 10 9 13 13 19 19 14 13 12 10 9 8 8 9 7 8 9 9 10 10 9 9 8 8 7 7 7 7 7 7 7 7 8 11 11 12 14 15
10 12 13 12 12 12 12 13 12 12 13 17 18 14 9 8 8 8 8 8 8 8 8 9 9 10 10 9 9 8 8 8 8 8 7 8 8 9 10 11 11 13 14 16
10 12 14 13 12 12 11 12 12 14 16 14 14 14 10 10 10 9 8 9 8 8 8 9 9 9 10 9 9 9 8 8 8 8 8 8 9 10 11 12 13 14 15 16
10 14 18 16 14 13 14 12 11 11 13 16 17 15 12 11 10 10 9 9 9 9 9 10 10 10 10 10 10 9 8 8 8 8 8 9 9 11 12 13 13 14 15 16
9 13 15 17 14 12 14 13 12 12 15 15 14 12 10 10 10 9 9 9 8 9 9 9 9 10 10 10 10 10 9 8 8 9 9 9 10 11 12 13 14 15 15 16
11 15 14 13 13 13 14 14 13 14 12 15 13 12 10 9 9 8 8 9 9 9 9 9 9 9 10 10 10 10 10 9 9 10 10 10 10 11 12 13 14 14 15 16
11 14 14 15 13 13 14 14 13 13 13 12 11 11 8 7 7 8 8 8 9 9 8 8 8 9 10 10 10 10 10 10 10 10 10 10 11 12 13 14 14 15 15 16
11 13 14 16 13 13 16 14 12 12 11 11 13 10 8 8 9 8 7 7 7 7 7 7 8 8 9 9 10 11 10 10 11 11 11 11 12 13 13 14 15 15 15 16
12 13 13 16 15 20 12 9 9 11 10 9 10 9 8 8 7 7 7 7 7 8 7 8 8 8 8 9 10 10 11 11 12 12 12 12 13 13 14 15 15 16 16 16
8 11 15 17 17 14 12 11 11 12 11 9 9 8 8 7 8 8 7 7 7 6 7 8 8 9 10 10 10 12 13 12 13 13 13 13 13 14 14 15 15 15 16 16
9 10 13 15 18 19 13 11 10 9 15 11 9 9 8 8 11 8 8 8 8 9 9 10 10 11 11 11 12 13 14 14 14 13 13 13 13 14 14 14 15 15 15 16
14 13 15 16 17 14 9 10 8 16 14 13 13 11 10 9 7 7 10 10 10 10 10 11 12 13 13 14 14 14 14 14 13 13 13 14 13 14 14 14 14 15 16 17
13 14 14 14 16 17 9 10 12 10 9 10 10 11 12 11 10 9 10 10 11 11 11 12 13 14 15 14 14 14 14 14 14 14 14 14 14 14 14 15 15 15 15 16
14 11 12 12 13 8 8 10 8 9 9 9 9 10 11 11 10 10 10 11 11 11 13 14 14 15 15 15 13 14 14 14 14 15 15 15 14 14 13 14 14 15 15 16
10 9 11 11 10 9 9 8 8 8 9 9 10 10 11 10 11 11 12 12 12 13 13 14 14 14 15 14 14 13 14 14 15 15 15 14 14 14 14 13 14 14 14 15
9 9 10 10 10 8 7 8 9 9 8 9 10 10 10 11 11 12 13 13 13 13 13 14 13 14 15 14 14 14 13 13 13 14 14 13 13 13 13 13 13 13 13 12
9 10 11 12 8 7 8 7 7 8 8 7 9 10 12 12 11 12 13 13 14 14 14 14 15 15 15 15 14 12 11 12 12 13 12 12 13 13 13 13 13 12 11 11